FW6720 Weather Reports


Display with metric or nautical units.
time (UTC)temp
F
wind
direction
speed
MPH
gust
MPH
rain 1hr
in
rain 24hr
in
rain mn
in
humidity
%
barometer
mb
20260903074544 53 54 0.0 0.0 0.00 0.00 0.00 98 1010.8
20260903074038 53 54 0.0 0.0 0.00 0.00 0.00 98 1010.8
20260903073534 53 54 0.0 0.0 0.00 0.00 0.00 98 1010.9
20260903073030 53 54 0.0 0.0 0.00 0.00 0.00 98 1010.7
20260903072526 53 54 0.0 0.0 0.00 0.00 0.00 98 1010.8
20260903072022 53 54 0.0 0.0 0.00 0.00 0.00 98 1010.9
20260903071518 53 54 0.0 0.0 0.00 0.00 0.00 98 1010.7
20260903071018 53 54 0.0 0.0 0.00 0.00 0.00 98 1010.9
20260903070512 53 54 0.0 0.0 0.00 0.00 0.00 98 1010.8
20260903070008 53 54 0.0 0.0 0.00 0.49 0.49 98 1010.9
20260903065502 53 54 0.0 0.0 0.00 0.49 0.49 98 1010.8
20260903065001 53 54 0.0 0.0 0.00 0.49 0.49 98 1010.8
20260903064456 53 54 0.0 0.0 0.00 0.49 0.49 98 1010.9
20260903063952 53 54 0.0 0.0 0.00 0.49 0.49 98 1010.7
20260903063447 53 54 0.0 0.0 0.00 0.49 0.49 98 1010.9
20260903062942 53 54 0.0 0.0 0.00 0.49 0.49 98 1010.9
20260903062437 53 54 0.0 0.0 0.00 0.49 0.49 98 1010.7
20260903061933 53 54 0.0 0.0 0.00 0.49 0.49 98 1010.9
20260903061432 53 54 0.0 0.0 0.00 0.49 0.49 98 1010.8
20260903060927 53 54 0.0 0.0 0.00 0.49 0.49 98 1011.0
20260903060422 53 54 0.0 0.0 0.00 0.49 0.49 98 1010.8
20260903055920 53 54 0.0 0.0 0.00 0.49 0.49 98 1011.0
20260903055419 53 54 0.0 0.0 0.00 0.49 0.49 98 1010.9
20260903054914 53 54 0.0 0.0 0.00 0.49 0.49 98 1011.0
20260903054413 53 54 0.0 0.0 0.00 0.49 0.49 97 1010.9
20260903053910 53 54 0.0 0.0 0.00 0.49 0.49 98 1010.9
20260903053404 53 54 0.0 0.0 0.00 0.49 0.49 97 1011.0
20260903052900 53 54 0.0 0.0 0.00 0.49 0.49 97 1011.2
20260903052356 53 54 0.0 0.0 0.00 0.49 0.49 97 1010.9
20260903051852 53 54 0.0 0.0 0.00 0.49 0.49 97 1010.9
20260903051347 53 54 0.0 0.0 0.00 0.49 0.49 97 1011.2
20260903050842 53 54 0.0 0.0 0.00 0.49 0.49 97 1011.0
20260903050341 53 54 0.0 0.0 0.00 0.49 0.49 97 1011.1
20260903045836 53 54 0.0 0.0 0.00 0.49 0.49 97 1011.1
20260903045332 53 54 0.0 0.0 0.00 0.49 0.49 97 1011.0
20260903044829 53 54 0.0 0.0 0.00 0.49 0.49 97 1011.1
20260903044329 53 54 0.0 0.0 0.00 0.49 0.49 97 1011.1
20260903043825 53 54 0.0 0.0 0.00 0.49 0.49 96 1011.0
20260903043320 53 54 0.0 0.0 0.00 0.49 0.49 96 1010.8
20260903042819 53 54 0.0 0.0 0.00 0.49 0.49 96 1010.7
20260903042314 53 54 0.0 0.0 0.00 0.49 0.49 96 1010.6
20260903041810 53 54 0.0 0.0 0.00 0.49 0.49 96 1010.9
20260903041306 53 54 0.0 0.0 0.00 0.49 0.49 96 1010.6
20260903040806 54 54 0.0 0.0 0.00 0.49 0.49 96 1010.5
20260903040306 53 54 0.0 0.0 0.00 0.49 0.49 96 1010.4
20260903035802 54 54 0.0 0.0 0.00 0.49 0.49 96 1010.4
20260903035257 54 54 0.0 0.0 0.00 0.49 0.49 96 1010.4
20260903034752 54 54 0.0 0.0 0.00 0.49 0.49 96 1010.2
20260903034248 54 54 0.0 0.0 0.00 0.49 0.49 96 1010.2
20260903033743 54 54 0.0 0.0 0.00 0.49 0.49 96 1010.5
20260903033238 54 54 0.0 0.0 0.00 0.49 0.49 96 1010.0
20260903032732 54 54 0.0 0.0 0.00 0.49 0.49 95 1010.1
20260903032228 54 54 0.0 0.0 0.00 0.49 0.49 95 1010.0
20260903031724 54 54 0.0 0.0 0.00 0.49 0.49 93 1010.1
20260903031223 54 54 0.0 0.0 0.00 0.49 0.49 93 1010.1
20260903030719 54 54 0.0 0.0 0.00 0.49 0.49 93 1010.1
20260903030215 54 54 0.0 0.0 0.00 0.49 0.49 92 1010.0
20260903025710 54 54 0.0 0.0 0.00 0.49 0.49 91 1010.0
20260903025206 54 54 0.0 0.0 0.00 0.49 0.49 91 1009.8
20260903024706 54 54 0.0 0.0 0.00 0.49 0.49 90 1009.8
20260903024204 55 53 0.0 0.0 0.00 0.49 0.49 90 1009.7
20260903023701 55 53 0.0 0.0 0.00 0.49 0.49 90 1009.9
20260903023156 55 53 0.0 0.0 0.00 0.49 0.49 90 1009.6
20260903022650 56 53 0.0 0.0 0.00 0.49 0.49 89 1009.8
20260903022149 56 53 0.0 0.0 0.00 0.49 0.49 89 1009.7
20260903021644 56 53 0.0 0.0 0.00 0.49 0.49 88 1009.7
20260903021138 57 53 0.0 0.0 0.00 0.49 0.49 88 1009.6
20260903020633 57 53 0.0 0.0 0.00 0.49 0.49 88 1009.3
20260903020128 57 53 0.0 0.0 0.00 0.49 0.49 88 1009.6
20260903015623 57 53 0.0 0.0 0.00 0.49 0.49 88 1009.3
20260903015119 58 53 0.0 0.0 0.00 0.49 0.49 87 1009.5
20260903014619 58 53 0.0 0.0 0.00 0.49 0.49 86 1009.5
20260903014119 59 53 0.0 0.0 0.00 0.49 0.49 85 1009.2
20260903013619 59 53 0.0 0.0 0.00 0.49 0.49 77 1009.3
20260903013113 59 53 0.0 0.0 0.00 0.49 0.49 77 1009.6
20260903012612 60 54 0.0 0.0 0.00 0.49 0.49 79 1009.4
20260903012112 59 53 0.0 0.0 0.00 0.49 0.49 79 1009.4
20260903011611 60 53 0.0 0.0 0.00 0.49 0.49 81 1009.2
20260903011111 60 53 0.0 0.0 0.00 0.49 0.49 83 1009.1
20260903010607 60 53 0.0 0.0 0.00 0.49 0.49 79 1009.2
20260903010105 59 53 0.0 0.0 0.00 0.49 0.49 80 1009.0
20260903005600 60 53 0.0 0.0 0.00 0.49 0.49 81 1009.0
20260903005055 60 53 0.0 0.0 0.00 0.49 0.49 76 1009.0
20260903004550 59 53 0.0 0.0 0.00 0.49 0.49 78 1009.1
20260903004045 60 53 0.0 0.0 0.00 0.49 0.49 77 1009.0
20260903003546 60 53 0.0 0.0 0.00 0.49 0.49 80 1008.7
20260903003041 60 53 0.0 0.0 0.00 0.49 0.49 81 1009.0
20260903002536 61 53 0.0 0.0 0.00 0.49 0.49 81 1008.7
20260903002031 61 53 0.0 0.0 0.00 0.49 0.49 75 1008.8
20260903001526 61 53 0.0 0.0 0.00 0.49 0.49 71 1008.8
20260903001025 61 54 0.0 0.0 0.00 0.49 0.49 72 1008.6
20260903000521 60 53 0.0 0.0 0.00 0.49 0.49 78 1008.8
20260903000020 61 53 0.0 0.0 0.00 0.49 0.49 81 1008.8
20260902235514 61 53 0.0 0.0 0.00 0.49 0.49 75 1008.6
20260902235009 62 52 0.0 0.0 0.00 0.49 0.49 79 1008.7
20260902234504 61 50 0.0 0.0 0.00 0.49 0.49 74 1008.5
20260902234002 61 49 0.0 0.0 0.00 0.49 0.49 78 1008.5
20260902233502 61 50 0.0 0.0 0.00 0.49 0.49 76 1008.6
20260902232956 61 33 0.0 0.0 0.00 0.49 0.49 79 1008.5
20260902232450 61 19 0.0 0.0 0.00 0.49 0.49 78 1008.3
20260902231950 61 61 0.0 0.0 0.00 0.49 0.49 80 1008.5
20260902231444 60 61 1.0 2.0 0.00 0.49 0.49 81 1008.5
20260902230939 60 44 0.0 0.0 0.00 0.49 0.49 80 1008.5
20260902230434 61 65 0.0 0.0 0.00 0.49 0.49 83 1008.6
20260902225927 61 51 0.0 0.0 0.00 0.49 0.49 83 1008.4
20260902225423 60 21 0.0 0.0 0.00 0.49 0.49 84 1008.0
20260902224922 60 21 0.0 0.0 0.00 0.49 0.49 86 1008.3
20260902224421 59 61 0.0 0.0 0.00 0.49 0.49 88 1008.2
20260902223919 59 65 1.0 2.0 0.00 0.49 0.49 89 1008.4
20260902223418 59 49 0.0 0.0 0.00 0.49 0.49 91 1007.9
20260902222913 58 50 0.0 0.0 0.00 0.49 0.49 90 1008.1
20260902222411 57 51 0.0 0.0 0.00 0.49 0.49 93 1008.1
20260902221911 57 48 0.0 0.0 0.00 0.49 0.49 92 1008.0
20260902221410 57 44 0.0 0.0 0.00 0.49 0.49 93 1008.1
20260902220906 57 45 0.0 0.0 0.00 0.49 0.49 93 1007.9
20260902220406 58 61 0.0 0.0 0.00 0.49 0.49 96 1008.1
20260902215901 58 48 0.0 0.0 0.00 0.49 0.49 96 1008.1
20260902215356 58 46 0.0 0.0 0.00 0.49 0.49 95 1007.8
20260902214852 57 50 1.0 2.0 0.07 0.49 0.49 94 1007.5
20260902214351 58 53 0.0 0.0 0.12 0.49 0.49 98 1007.6
20260902213845 58 52 0.0 0.0 0.12 0.48 0.48 98 1008.0
20260902213341 58 52 0.0 0.0 0.07 0.47 0.47 98 1007.7
20260902212840 58 53 0.0 0.0 0.05 0.46 0.46 98 1007.3
20260902212337 58 51 0.0 0.0 0.05 0.46 0.46 98 1007.1
20260902211833 57 52 0.0 0.0 0.00 0.45 0.45 98 1007.4
20260902211328 57 40 0.0 0.0 0.00 0.45 0.45 98 1007.3
20260902210823 57 39 0.0 0.0 0.07 0.45 0.45 98 1007.1
20260902210323 57 4 0.0 0.0 0.00 0.44 0.44 98 1007.1
20260902205821 57 4 0.0 0.0 0.00 0.44 0.44 98 1007.0
20260902205316 57 4 0.0 0.0 0.05 0.44 0.44 98 1007.1
20260902204812 57 4 0.0 0.0 0.05 0.44 0.44 98 1007.1
20260902204306 57 51 0.0 0.0 0.00 0.43 0.43 98 1007.0
20260902203802 57 12 0.0 0.0 0.00 0.43 0.43 98 1007.0
20260902203256 57 12 0.0 0.0 0.00 0.43 0.43 98 1006.7
20260902202751 57 19 0.0 0.0 0.07 0.43 0.43 98 1006.7
20260902202248 57 53 0.0 0.0 0.07 0.43 0.43 98 1006.7
20260902201744 57 46 0.0 0.0 0.00 0.42 0.42 98 1006.9
20260902201243 56 5 0.0 0.0 0.07 0.42 0.42 98 1006.8
20260902200739 56 49 0.0 0.0 0.12 0.42 0.42 98 1006.8
20260902200234 56 47 0.0 0.0 0.12 0.41 0.41 98 1007.0
20260902195729 56 49 0.0 0.0 0.07 0.40 0.40 98 1006.9
20260902195228 56 8 0.0 0.0 0.12 0.39 0.39 98 1006.9
20260902194723 56 52 0.0 0.0 0.12 0.38 0.38 98 1007.0
20260902194218 56 53 0.0 0.0 0.12 0.37 0.37 98 1006.9
20260902193713 56 30 0.0 0.0 0.12 0.36 0.36 98 1007.0
20260902193209 56 29 0.0 0.0 0.12 0.35 0.35 98 1007.1
20260902192707 56 3 0.0 0.0 0.12 0.34 0.34 98 1007.1
20260902192206 56 76 0.0 0.0 0.05 0.33 0.33 98 1007.4
20260902191701 56 76 0.0 0.0 0.19 0.32 0.32 98 1007.3
20260902191155 56 76 0.0 0.0 0.24 0.31 0.31 98 1007.4
20260902190651 56 76 0.0 0.0 0.31 0.29 0.29 98 1007.5
20260902190146 56 76 0.0 0.0 0.24 0.27 0.27 98 1007.3
20260902185641 56 77 0.0 0.0 0.17 0.24 0.24 98 1007.4
20260902185137 56 76 0.0 0.0 0.19 0.23 0.23 98 1007.4
20260902184632 56 76 0.0 0.0 0.12 0.21 0.21 98 1007.7
20260902184127 56 76 0.0 0.0 0.12 0.20 0.20 98 1007.4
20260902183623 56 76 0.0 0.0 0.12 0.19 0.19 98 1007.5
20260902183120 56 77 0.0 0.0 0.12 0.18 0.18 98 1007.6
20260902182616 56 76 0.0 0.0 0.00 0.16 0.16 98 1007.6
20260902182112 56 76 0.0 0.0 0.07 0.16 0.16 98 1007.3
20260902181608 56 76 0.0 0.0 0.07 0.16 0.16 98 1007.9
20260902181107 56 77 0.0 0.0 0.05 0.15 0.15 98 1007.7
20260902180607 56 76 0.0 0.0 0.05 0.15 0.15 98 1007.8
20260902175602 56 77 0.0 0.0 0.07 0.14 0.14 98 1008.0
20260902175058 56 77 0.0 0.0 0.05 0.13 0.13 98 1008.1
20260902174554 56 77 0.0 0.0 0.05 0.13 0.13 98 1008.3
20260902174049 56 76 0.0 0.0 0.07 0.12 0.12 98 1008.0
20260902173544 57 76 0.0 0.0 0.00 0.11 0.11 97 1008.2
20260902173039 57 77 0.0 0.0 0.05 0.11 0.11 97 1008.3
20260902172533 56 77 0.0 0.0 0.05 0.11 0.11 97 1008.2
20260902172028 56 77 0.0 0.0 0.07 0.10 0.10 97 1008.4
20260902171524 57 77 0.0 0.0 0.05 0.09 0.09 97 1008.3
20260902171020 56 77 0.0 0.0 0.05 0.09 0.09 96 1008.4
20260902170514 56 77 0.0 0.0 0.07 0.08 0.08 96 1008.4
20260902170010 56 76 0.0 0.0 0.05 0.07 0.07 95 1008.1
20260902165509 56 77 0.0 0.0 0.05 0.07 0.07 95 1008.3
20260902165004 56 77 0.0 0.0 0.07 0.06 0.06 94 1008.3
20260902164459 56 77 0.0 0.0 0.07 0.06 0.06 93 1008.2
20260902163958 56 77 0.0 0.0 0.00 0.05 0.05 92 1008.2
20260902163454 56 77 0.0 0.0 0.00 0.05 0.05 91 1008.2
20260902162951 56 77 0.0 0.0 0.00 0.05 0.05 90 1008.3
20260902162447 56 77 0.0 0.0 0.07 0.05 0.05 90 1008.3
20260902161947 56 77 0.0 0.0 0.07 0.05 0.05 90 1008.5
20260902161442 56 77 0.0 0.0 0.00 0.04 0.04 89 1008.5
20260902160938 56 77 0.0 0.0 0.00 0.04 0.04 89 1008.3
20260902160433 56 77 0.0 0.0 0.05 0.04 0.04 89 1008.6
20260902155931 56 77 0.0 0.0 0.00 0.03 0.03 89 1008.7
20260902155427 56 77 0.0 0.0 0.07 0.03 0.03 89 1008.4
20260902154920 56 77 0.0 0.0 0.00 0.02 0.02 89 1008.6
20260902154416 56 76 0.0 0.0 0.05 0.02 0.02 89 1008.5
20260902153915 56 77 0.0 0.0 0.00 0.01 0.01 88 1008.6
20260902153414 56 77 0.0 0.0 0.00 0.01 0.01 89 1008.8
20260902152910 56 77 0.0 0.0 0.00 0.01 0.01 89 1008.7
20260902152406 56 76 0.0 0.0 0.00 0.01 0.01 88 1008.7
20260902151901 56 76 0.0 0.0 0.07 0.01 0.01 88 1008.7
20260902151356 56 76 0.0 0.0 0.07 0.01 0.01 89 1009.0
20260902150851 56 77 0.0 0.0 0.00 0.00 0.00 89 1008.9
20260902150347 56 76 0.0 0.0 0.00 0.00 0.00 89 1008.9
20260902145846 56 76 0.0 0.0 0.00 0.00 0.00 89 1008.9
20260902145342 56 77 0.0 0.0 0.00 0.00 0.00 89 1009.0
20260902144837 56 77 0.0 0.0 0.00 0.00 0.00 89 1009.4
20260902144333 56 77 0.0 0.0 0.00 0.00 0.00 88 1009.2
20260902143828 56 77 0.0 0.0 0.00 0.00 0.00 89 1009.4
20260902143328 56 77 0.0 0.0 0.00 0.00 0.00 89 1009.2
20260902142824 56 77 0.0 0.0 0.00 0.00 0.00 88 1009.5
20260902142320 56 77 0.0 0.0 0.00 0.00 0.00 89 1009.4
20260902141815 56 77 0.0 0.0 0.00 0.00 0.00 89 1009.5
20260902141310 55 77 0.0 0.0 0.00 0.00 0.00 89 1009.3
20260902140804 55 77 0.0 0.0 0.00 0.00 0.00 89 1009.3
20260902140259 55 77 0.0 0.0 0.00 0.00 0.00 89 1009.5
20260902135758 55 77 0.0 0.0 0.00 0.00 0.00 89 1009.4
20260902135254 55 77 0.0 0.0 0.00 0.00 0.00 89 1009.5
20260902134754 55 77 0.0 0.0 0.00 0.00 0.00 89 1009.6
20260902134249 55 77 0.0 0.0 0.00 0.00 0.00 89 1009.6
20260902133745 55 77 0.0 0.0 0.00 0.00 0.00 89 1009.6
20260902133244 55 77 0.0 0.0 0.00 0.00 0.00 89 1009.6
20260902132739 55 77 0.0 0.0 0.00 0.00 0.00 89 1009.6
20260902132235 55 77 0.0 0.0 0.00 0.00 0.00 89 1009.7
20260902131730 55 77 0.0 0.0 0.00 0.00 0.00 89 1009.8
20260902131227 55 77 0.0 0.0 0.00 0.00 0.00 88 1009.9
20260902130726 56 77 0.0 0.0 0.00 0.00 0.00 88 1010.1
20260902130222 56 77 0.0 0.0 0.00 0.00 0.00 88 1010.2
20260902125717 56 77 0.0 0.0 0.00 0.00 0.00 88 1010.1
20260902125213 56 77 0.0 0.0 0.00 0.00 0.00 88 1010.2
20260902124709 56 77 0.0 0.0 0.00 0.00 0.00 88 1010.4
20260902124209 56 77 0.0 0.0 0.00 0.00 0.00 88 1010.4
20260902123705 56 77 0.0 0.0 0.00 0.00 0.00 88 1010.7
20260902123200 56 77 0.0 0.0 0.00 0.00 0.00 88 1010.8
20260902122654 56 77 0.0 0.0 0.00 0.00 0.00 88 1010.7
20260902122150 56 77 0.0 0.0 0.00 0.00 0.00 88 1011.0
20260902121644 56 77 0.0 0.0 0.00 0.00 0.00 88 1010.6
20260902121139 56 77 0.0 0.0 0.00 0.00 0.00 88 1010.7
20260902120635 55 77 0.0 0.0 0.00 0.00 0.00 88 1010.8
20260902120131 55 77 0.0 0.0 0.00 0.00 0.00 88 1010.8
20260902115620 55 77 0.0 0.0 0.00 0.00 0.00 88 1010.8
20260902115116 55 77 0.0 0.0 0.00 0.00 0.00 89 1010.9
20260902114612 55 77 0.0 0.0 0.00 0.00 0.00 89 1011.0
20260902114112 55 77 0.0 0.0 0.00 0.00 0.00 89 1011.1
20260902113608 55 77 0.0 0.0 0.00 0.00 0.00 89 1011.2
20260902113102 55 77 0.0 0.0 0.00 0.00 0.00 89 1011.3
20260902112558 55 77 0.0 0.0 0.00 0.00 0.00 89 1011.3
20260902112054 55 77 0.0 0.0 0.00 0.00 0.00 89 1011.4
20260902111550 55 77 0.0 0.0 0.00 0.00 0.00 88 1011.6
20260902111045 55 77 0.0 0.0 0.00 0.00 0.00 88 1011.5
20260902110536 55 77 0.0 0.0 0.00 0.00 0.00 88 1011.5
20260902110031 55 77 0.0 0.0 0.00 0.00 0.00 88 1011.5
20260902105531 55 77 0.0 0.0 0.00 0.00 0.00 88 1011.3
20260902105025 55 77 0.0 0.0 0.00 0.00 0.00 88 1011.5
20260902104521 55 77 0.0 0.0 0.00 0.00 0.00 88 1011.5
20260902104016 55 77 0.0 0.0 0.00 0.00 0.00 88 1011.4
20260902103511 54 77 0.0 0.0 0.00 0.00 0.00 88 1011.3
20260902103006 54 77 0.0 0.0 0.00 0.00 0.00 88 1011.6
20260902102503 54 77 0.0 0.0 0.00 0.00 0.00 88 1011.6
20260902101959 54 77 0.0 0.0 0.00 0.00 0.00 88 1011.7
20260902101454 54 77 0.0 0.0 0.00 0.00 0.00 88 1011.9
20260902100953 54 77 0.0 0.0 0.00 0.00 0.00 88 1011.9
20260902100448 54 77 0.0 0.0 0.00 0.00 0.00 88 1011.6
20260902095948 54 77 0.0 0.0 0.00 0.00 0.00 88 1011.7
20260902095443 54 77 0.0 0.0 0.00 0.00 0.00 88 1011.7
20260902094941 54 77 0.0 0.0 0.00 0.00 0.00 88 1011.8
20260902094437 54 77 0.0 0.0 0.00 0.00 0.00 88 1011.7
20260902093932 54 77 0.0 0.0 0.00 0.00 0.00 88 1011.9
20260902093427 54 77 0.0 0.0 0.00 0.00 0.00 88 1011.7
20260902092926 54 77 0.0 0.0 0.00 0.00 0.00 88 1011.8
20260902092417 54 77 0.0 0.0 0.00 0.00 0.00 88 1011.9
20260902091916 54 77 0.0 0.0 0.00 0.00 0.00 87 1012.0
20260902091412 54 77 0.0 0.0 0.00 0.00 0.00 87 1011.9
20260902090909 54 77 0.0 0.0 0.00 0.00 0.00 87 1012.0
20260902090408 54 77 0.0 0.0 0.00 0.00 0.00 87 1012.2
20260902085907 54 77 0.0 0.0 0.00 0.00 0.00 86 1012.2
20260902085403 54 77 0.0 0.0 0.00 0.00 0.00 86 1012.2
20260902084858 54 77 0.0 0.0 0.00 0.00 0.00 86 1012.6
20260902084354 55 77 0.0 0.0 0.00 0.00 0.00 86 1012.2
20260902083849 55 77 0.0 0.0 0.00 0.00 0.00 85 1012.4
20260902083349 55 77 0.0 0.0 0.00 0.00 0.00 85 1012.9
20260902082844 56 77 0.0 0.0 0.00 0.00 0.00 85 1012.7
20260902082340 56 77 0.0 0.0 0.00 0.00 0.00 84 1012.8
20260902081836 56 77 0.0 0.0 0.00 0.00 0.00 84 1012.6
20260902081332 56 77 0.0 0.0 0.00 0.00 0.00 84 1012.8
20260902080827 56 77 0.0 0.0 0.00 0.00 0.00 84 1012.9
20260902080324 56 77 0.0 0.0 0.00 0.00 0.00 84 1012.4
20260902075822 56 77 0.0 0.0 0.00 0.00 0.00 84 1012.3
20260902075319 56 77 0.0 0.0 0.00 0.00 0.00 83 1012.6
20260902074814 56 77 0.0 0.0 0.00 0.00 0.00 83 1012.8